Location: Dampvalley
(47.9094°N, 6.1967°E)
Time: 19:20:38
(UTC+00:00)

XW-2C - Visible Passes

Search period start: 07 December 2021 00:00
Search period end: 17 December 2021 00:00
Orbit: 505 x 523 km, 97.5° (Epoch: 07 December)

Date Brightness Start Highest point End Pass type
(mag) Time Alt. Az. Time Alt. Az. Time Alt. Az.
07 Dec ? 04:35:48 10° NE 04:38:01 15° E 04:40:14 10° SE visible
07 Dec ? 06:08:37 10° N 06:12:19 49° WNW 06:16:00 10° SSW visible
07 Dec ? 16:51:31 10° S 16:55:15 65° WSW 16:59:02 10° NNW visible
08 Dec ? 04:22:18 10° E 04:22:30 10° E 04:22:44 10° E visible
08 Dec ? 05:53:12 10° N 05:57:02 75° WNW 06:00:49 10° SSW visible
08 Dec ? 16:36:09 10° SSE 16:39:54 83° ENE 16:43:43 10° NNW visible
09 Dec ? 05:37:51 10° NNE 05:41:42 73° ESE 05:45:29 10° S visible
09 Dec ? 16:20:55 10° SSE 16:24:35 55° ENE 16:28:18 10° N visible
09 Dec ? 17:57:06 10° WSW 17:58:58 13° W 18:00:50 10° WNW visible
10 Dec ? 05:22:36 10° NNE 05:26:19 48° E 05:30:00 10° S visible
10 Dec ? 17:40:43 10° SW 17:43:28 19° W 17:46:15 10° NW visible
11 Dec ? 05:07:26 10° NNE 05:10:54 32° E 05:14:21 10° SSE visible
11 Dec ? 17:24:44 10° SSW 17:27:59 27° W 17:31:17 10° NW visible
12 Dec ? 04:52:25 10° NE 04:55:27 22° E 04:58:29 10° SSE visible
12 Dec ? 06:26:06 10° N 06:29:32 32° WNW 06:32:57 10° SW visible
12 Dec ? 17:09:00 10° S 17:12:34 40° W 17:16:11 10° NNW visible
13 Dec ? 04:37:38 10° NE 04:39:58 15° E 04:42:18 10° SE visible
13 Dec ? 06:10:34 10° N 06:14:15 47° WNW 06:17:54 10° SW visible
13 Dec ? 16:53:26 10° S 16:57:10 62° W 17:00:57 10° NNW visible
14 Dec ? 04:23:38 10° ENE 04:24:26 11° E 04:25:15 10° E visible
14 Dec ? 05:55:07 10° N 05:58:56 71° WNW 06:02:43 10° SSW visible
14 Dec ? 16:38:01 10° SSE 16:41:47 87° E 16:45:37 10° NNW visible
15 Dec ? 05:39:45 10° NNE 05:43:35 77° ESE 05:47:22 10° S visible
15 Dec ? 16:22:45 10° SSE 16:26:27 57° ENE 16:30:12 10° N visible
15 Dec ? 17:59:06 10° WSW 18:00:51 13° W 18:02:36 10° WNW visible
16 Dec ? 05:24:28 10° NNE 05:28:12 50° E 05:31:53 10° S visible
16 Dec ? 17:42:38 10° SW 17:45:19 18° W 17:48:03 10° NW visible
